1998-067LK

Last updated on May 25, 2017, 12:15 a.m. UTC

1 42702U 98067LK  17144.38957132  .00019991  00000-0  29711-3 0  9992
2 42702  51.6411 156.8682 0006758 231.0452 266.5827 15.55141661  1152

Satellite is not in orbit.